EN

Hourly Weather Kysorychi

Today, 3 August, Tuesday

Time Temperature Precipitation Wind Pressure Humidity
00:00 +15°C° 0 mm 2 mps 743 mmHg 89%
01:00 +15°C° 0 mm 2 mps 743 mmHg 91%
02:00 +14°C° 0 mm 2 mps 743 mmHg 93%
03:00 +14°C° 0 mm 2 mps 743 mmHg 94%
04:00 +14°C° 0 mm 2 mps 743 mmHg 95%
05:00 +14°C° 0 mm 2 mps 743 mmHg 96%
06:00 +15°C° 0 mm 2 mps 744 mmHg 86%
07:00 +17°C° 0 mm 3 mps 744 mmHg 77%
08:00 +19°C° 0 mm 3 mps 744 mmHg 67%
09:00 +20°C° 0 mm 3 mps 745 mmHg 59%
10:00 +22°C° 0 mm 4 mps 745 mmHg 51%
11:00 +23°C° 0 mm 4 mps 745 mmHg 43%
12:00 +25°C° 0 mm 4 mps 745 mmHg 40%
13:00 +25°C° 0 mm 4 mps 745 mmHg 37%
14:00 +26°C° 0 mm 4 mps 744 mmHg 35%
15:00 +25°C° 0 mm 3 mps 744 mmHg 39%
16:00 +24°C° 0 mm 3 mps 744 mmHg 44%
17:00 +22°C° 0 mm 3 mps 744 mmHg 49%
18:00 +21°C° 0 mm 3 mps 745 mmHg 53%
19:00 +19°C° 0 mm 2 mps 745 mmHg 58%
20:00 +19°C° 0 mm 1 mps 745 mmHg 63%
21:00 +18°C° 0 mm 1 mps 745 mmHg 66%
22:00 +16°C° 0 mm 1 mps 746 mmHg 69%
23:00 +14°C° 0 mm 0 mps 746 mmHg 72%

Tomorrow, 4 August, Wednesday

Time Temperature Precipitation Wind Pressure Humidity
00:00 +14°C° 0 mm 0 mps 746 mmHg 72%
01:00 +15°C° 0 mm 1 mps 746 mmHg 73%
02:00 +14°C° 0 mm 1 mps 746 mmHg 74%
03:00 +14°C° 0 mm 1 mps 746 mmHg 73%
04:00 +14°C° 0 mm 1 mps 746 mmHg 73%
05:00 +14°C° 0 mm 1 mps 746 mmHg 73%
06:00 +16°C° 0 mm 2 mps 746 mmHg 66%
07:00 +19°C° 0 mm 2 mps 746 mmHg 60%
08:00 +21°C° 0 mm 2 mps 746 mmHg 54%
09:00 +23°C° 0 mm 2 mps 746 mmHg 50%
10:00 +24°C° 0 mm 3 mps 746 mmHg 46%
11:00 +26°C° 0 mm 3 mps 746 mmHg 42%
12:00 +27°C° 0 mm 3 mps 746 mmHg 42%
13:00 +27°C° 0 mm 3 mps 745 mmHg 41%
14:00 +28°C° 0 mm 3 mps 745 mmHg 41%
15:00 +26°C° 0.3 mm 3 mps 745 mmHg 50%
16:00 +25°C° 0.3 mm 3 mps 744 mmHg 59%
17:00 +22°C° 0.3 mm 3 mps 744 mmHg 68%
18:00 +20°C° 2 mm 3 mps 744 mmHg 76%
19:00 +19°C° 2 mm 2 mps 744 mmHg 84%
20:00 +17°C° 2 mm 2 mps 744 mmHg 91%
21:00 +17°C° 0.9 mm 2 mps 744 mmHg 92%
22:00 +17°C° 0.9 mm 2 mps 744 mmHg 94%
23:00 +17°C° 0.9 mm 2 mps 744 mmHg 95%

Day after tomorrow, 5 August, Thursday

Time Temperature Precipitation Wind Pressure Humidity
00:00 +17°C° 0.5 mm 2 mps 743 mmHg 95%
01:00 +17°C° 0.5 mm 2 mps 743 mmHg 95%
02:00 +17°C° 0.5 mm 2 mps 743 mmHg 95%
03:00 +17°C° 0 mm 2 mps 742 mmHg 95%
04:00 +17°C° 0 mm 2 mps 742 mmHg 95%
05:00 +18°C° 0 mm 1 mps 742 mmHg 95%
06:00 +19°C° 0 mm 1 mps 742 mmHg 91%
07:00 +20°C° 0 mm 1 mps 742 mmHg 87%
08:00 +19°C° 0 mm 0 mps 742 mmHg 83%
09:00 +22°C° 0 mm 1 mps 742 mmHg 80%
10:00 +23°C° 0 mm 1 mps 742 mmHg 77%
11:00 +23°C° 0 mm 1 mps 742 mmHg 74%
12:00 +24°C° 0 mm 1 mps 742 mmHg 73%
13:00 +24°C° 0 mm 1 mps 741 mmHg 71%
14:00 +25°C° 0 mm 2 mps 741 mmHg 70%
15:00 +26°C° 0 mm 1 mps 741 mmHg 66%
16:00 +27°C° 0 mm 1 mps 741 mmHg 61%
17:00 +28°C° 0 mm 1 mps 740 mmHg 57%
18:00 +26°C° 0 mm 1 mps 740 mmHg 66%
19:00 +24°C° 0 mm 2 mps 739 mmHg 75%
20:00 +21°C° 0 mm 2 mps 739 mmHg 84%
21:00 +21°C° 0.4 mm 3 mps 738 mmHg 88%
22:00 +20°C° 0.4 mm 3 mps 738 mmHg 92%
23:00 +19°C° 0.4 mm 3 mps 738 mmHg 95%

6 August, Friday

Time Temperature Precipitation Wind Pressure Humidity
00:00 +19°C° 2.4 mm 3 mps 737 mmHg 95%
01:00 +19°C° 2.4 mm 2 mps 737 mmHg 96%
02:00 +19°C° 2.4 mm 2 mps 736 mmHg 96%
03:00 +18°C° 0 mm 2 mps 736 mmHg 96%
04:00 +18°C° 0 mm 3 mps 736 mmHg 96%
05:00 +18°C° 0 mm 4 mps 736 mmHg 96%
06:00 +19°C° 0 mm 4 mps 736 mmHg 92%
07:00 +20°C° 0 mm 4 mps 736 mmHg 89%
08:00 +21°C° 0 mm 4 mps 736 mmHg 86%
09:00 +22°C° 0 mm 4 mps 736 mmHg 76%
10:00 +25°C° 0 mm 5 mps 737 mmHg 66%
11:00 +27°C° 0 mm 5 mps 737 mmHg 56%
12:00 +27°C° 0 mm 6 mps 737 mmHg 54%
13:00 +27°C° 0 mm 6 mps 737 mmHg 52%
14:00 +27°C° 0 mm 6 mps 737 mmHg 50%
15:00 +27°C° 0 mm 6 mps 737 mmHg 53%
16:00 +26°C° 0 mm 5 mps 737 mmHg 56%
17:00 +25°C° 0 mm 5 mps 737 mmHg 60%
18:00 +23°C° 0 mm 4 mps 738 mmHg 67%
19:00 +21°C° 0 mm 3 mps 738 mmHg 74%
20:00 +19°C° 0 mm 2 mps 738 mmHg 81%
21:00 +18°C° 0 mm 3 mps 739 mmHg 84%
22:00 +17°C° 0 mm 3 mps 739 mmHg 86%
23:00 +17°C° 0 mm 3 mps 739 mmHg 88%

7 August, Saturday

Time Temperature Precipitation Wind Pressure Humidity
00:00 +16°C° 0 mm 3 mps 739 mmHg 89%
01:00 +15°C° 0 mm 2 mps 740 mmHg 91%
02:00 +15°C° 0 mm 2 mps 740 mmHg 92%
03:00 +15°C° 0 mm 2 mps 740 mmHg 91%
04:00 +15°C° 0 mm 2 mps 740 mmHg 89%
05:00 +15°C° 0 mm 2 mps 741 mmHg 88%
06:00 +16°C° 0 mm 2 mps 741 mmHg 84%
07:00 +17°C° 0 mm 3 mps 741 mmHg 80%
08:00 +18°C° 0 mm 3 mps 742 mmHg 76%
09:00 +19°C° 0 mm 3 mps 742 mmHg 69%
10:00 +20°C° 0 mm 3 mps 742 mmHg 63%
11:00 +22°C° 0 mm 3 mps 742 mmHg 57%
12:00 +24°C° 0 mm 3 mps 742 mmHg 53%
13:00 +25°C° 0 mm 3 mps 742 mmHg 49%
14:00 +26°C° 0 mm 3 mps 742 mmHg 45%
15:00 +26°C° 0 mm 3 mps 743 mmHg 46%
16:00 +26°C° 0 mm 3 mps 743 mmHg 47%
17:00 +26°C° 0 mm 2 mps 743 mmHg 47%
18:00 +24°C° 0 mm 2 mps 743 mmHg 55%
19:00 +21°C° 0 mm 2 mps 743 mmHg 63%
20:00 +21°C° 0 mm 1 mps 744 mmHg 70%
21:00 +20°C° 0 mm 1 mps 744 mmHg 74%
22:00 +19°C° 0 mm 1 mps 744 mmHg 79%
23:00 +18°C° 0 mm 1 mps 745 mmHg 83%

8 August, Sunday

Time Temperature Precipitation Wind Pressure Humidity
00:00 +16°C° 0 mm 1 mps 745 mmHg 84%
01:00 +16°C° 0 mm 1 mps 745 mmHg 85%
02:00 +16°C° 0 mm 1 mps 745 mmHg 86%
03:00 +15°C° 0 mm 1 mps 745 mmHg 87%
04:00 +15°C° 0 mm 1 mps 745 mmHg 88%
05:00 +15°C° 0 mm 1 mps 745 mmHg 88%
06:00 +17°C° 0 mm 2 mps 745 mmHg 80%
07:00 +19°C° 0 mm 2 mps 745 mmHg 72%
08:00 +21°C° 0 mm 2 mps 746 mmHg 64%
09:00 +24°C° 0 mm 2 mps 746 mmHg 58%
10:00 +25°C° 0 mm 3 mps 746 mmHg 52%
11:00 +27°C° 0 mm 3 mps 746 mmHg 47%
12:00 +28°C° 0 mm 3 mps 746 mmHg 44%
13:00 +29°C° 0 mm 3 mps 745 mmHg 41%
14:00 +30°C° 0 mm 3 mps 745 mmHg 39%
15:00 +30°C° 0 mm 3 mps 745 mmHg 41%
16:00 +30°C° 0 mm 3 mps 745 mmHg 42%
17:00 +30°C° 0 mm 2 mps 745 mmHg 44%
18:00 +28°C° 0 mm 2 mps 745 mmHg 52%
19:00 +26°C° 0 mm 2 mps 745 mmHg 59%
20:00 +23°C° 0 mm 2 mps 745 mmHg 67%
21:00 +23°C° 0 mm 2 mps 745 mmHg 71%
22:00 +21°C° 0 mm 2 mps 746 mmHg 75%
23:00 +20°C° 0 mm 2 mps 746 mmHg 80%
Show more